<?xml version="1.0" encoding="UTF-8" standalone="no" ?>
<gpx xmlns="http://www.topografix.com/GPX/1/1" xmlns:xsi="http://www.w3.org/2001/XMLSchema-instance" xsi:schemaLocation="http://www.topografix.com/GPX/1/1 http://www.topografix.com/GPX/1/1/gpx.xsd" version="1.1" creator="VisuGPX - https://www.visugpx.com">
  <metadata>
    <name>RandoEtang de la Tour 17.7 km </name>
    <desc><![CDATA[Préparation Rando Etang de la Tour 17.7 km]]></desc>
  </metadata>
  <trk>
    <name><![CDATA[Rando AS 17,27 Km]]></name>
    <trkseg>
      <trkpt lat="48.67443" lon="1.9148">
        <ele>175</ele>
        <time>1970-01-01T00:00:00.000Z</time>
      </trkpt>
      <trkpt lat="48.67448" lon="1.91306">
        <ele>176</ele>
        <time>1970-01-01T00:00:00.000Z</time>
      </trkpt>
      <trkpt lat="48.67312" lon="1.91251">
        <ele>175</ele>
        <time>1970-01-01T00:00:00.000Z</time>
      </trkpt>
      <trkpt lat="48.67243" lon="1.91117">
        <ele>175</ele>
        <time>1970-01-01T00:00:00.000Z</time>
      </trkpt>
      <trkpt lat="48.67056" lon="1.9024">
        <ele>173</ele>
        <time>1970-01-01T00:00:00.000Z</time>
      </trkpt>
      <trkpt lat="48.66976" lon="1.89869">
        <ele>172</ele>
        <time>1970-01-01T00:00:00.000Z</time>
      </trkpt>
      <trkpt lat="48.66833" lon="1.89395">
        <ele>171</ele>
        <time>1970-01-01T00:00:00.000Z</time>
      </trkpt>
      <trkpt lat="48.66753" lon="1.89064">
        <ele>171</ele>
        <time>1970-01-01T00:00:00.000Z</time>
      </trkpt>
      <trkpt lat="48.66737" lon="1.88906">
        <ele>171</ele>
        <time>1970-01-01T00:00:00.000Z</time>
      </trkpt>
      <trkpt lat="48.67176" lon="1.88569">
        <ele>171</ele>
        <time>1970-01-01T00:00:00.000Z</time>
      </trkpt>
      <trkpt lat="48.67278" lon="1.87896">
        <ele>170</ele>
        <time>1970-01-01T00:00:00.000Z</time>
      </trkpt>
      <trkpt lat="48.67278" lon="1.87801">
        <ele>170</ele>
        <time>1970-01-01T00:00:00.000Z</time>
      </trkpt>
      <trkpt lat="48.67272" lon="1.87706">
        <ele>170</ele>
        <time>1970-01-01T00:00:00.000Z</time>
      </trkpt>
      <trkpt lat="48.67246" lon="1.87611">
        <ele>170</ele>
        <time>1970-01-01T00:00:00.000Z</time>
      </trkpt>
      <trkpt lat="48.67208" lon="1.87429">
        <ele>170</ele>
        <time>1970-01-01T00:00:00.000Z</time>
      </trkpt>
      <trkpt lat="48.67035" lon="1.8747">
        <ele>169</ele>
        <time>1970-01-01T00:00:00.000Z</time>
      </trkpt>
      <trkpt lat="48.66998" lon="1.87265">
        <ele>169</ele>
        <time>1970-01-01T00:00:00.000Z</time>
      </trkpt>
      <trkpt lat="48.66956" lon="1.87234">
        <ele>169</ele>
        <time>1970-01-01T00:00:00.000Z</time>
      </trkpt>
      <trkpt lat="48.66443" lon="1.87444">
        <ele>169</ele>
        <time>1970-01-01T00:00:00.000Z</time>
      </trkpt>
      <trkpt lat="48.66422" lon="1.87405">
        <ele>169</ele>
        <time>1970-01-01T00:00:00.000Z</time>
      </trkpt>
      <trkpt lat="48.66171" lon="1.87518">
        <ele>167</ele>
        <time>1970-01-01T00:00:00.000Z</time>
      </trkpt>
      <trkpt lat="48.66024" lon="1.8759">
        <ele>166</ele>
        <time>1970-01-01T00:00:00.000Z</time>
      </trkpt>
      <trkpt lat="48.65982" lon="1.87606">
        <ele>167</ele>
        <time>1970-01-01T00:00:00.000Z</time>
      </trkpt>
      <trkpt lat="48.65951" lon="1.87654">
        <ele>167</ele>
        <time>1970-01-01T00:00:00.000Z</time>
      </trkpt>
      <trkpt lat="48.65936" lon="1.87733">
        <ele>166</ele>
        <time>1970-01-01T00:00:00.000Z</time>
      </trkpt>
      <trkpt lat="48.65878" lon="1.87813">
        <ele>166</ele>
        <time>1970-01-01T00:00:00.000Z</time>
      </trkpt>
      <trkpt lat="48.65847" lon="1.87948">
        <ele>166</ele>
        <time>1970-01-01T00:00:00.000Z</time>
      </trkpt>
      <trkpt lat="48.65811" lon="1.88059">
        <ele>166</ele>
        <time>1970-01-01T00:00:00.000Z</time>
      </trkpt>
      <trkpt lat="48.6579" lon="1.88146">
        <ele>166</ele>
        <time>1970-01-01T00:00:00.000Z</time>
      </trkpt>
      <trkpt lat="48.65733" lon="1.88194">
        <ele>166</ele>
        <time>1970-01-01T00:00:00.000Z</time>
      </trkpt>
      <trkpt lat="48.65701" lon="1.88194">
        <ele>166</ele>
        <time>1970-01-01T00:00:00.000Z</time>
      </trkpt>
      <trkpt lat="48.65686" lon="1.88218">
        <ele>166</ele>
        <time>1970-01-01T00:00:00.000Z</time>
      </trkpt>
      <trkpt lat="48.65654" lon="1.88163">
        <ele>166</ele>
        <time>1970-01-01T00:00:00.000Z</time>
      </trkpt>
      <trkpt lat="48.65602" lon="1.88148">
        <ele>166</ele>
        <time>1970-01-01T00:00:00.000Z</time>
      </trkpt>
      <trkpt lat="48.65523" lon="1.88172">
        <ele>167</ele>
        <time>1970-01-01T00:00:00.000Z</time>
      </trkpt>
      <trkpt lat="48.65486" lon="1.88157">
        <ele>167</ele>
        <time>1970-01-01T00:00:00.000Z</time>
      </trkpt>
      <trkpt lat="48.6547" lon="1.88157">
        <ele>167</ele>
        <time>1970-01-01T00:00:00.000Z</time>
      </trkpt>
      <trkpt lat="48.65438" lon="1.88189">
        <ele>167</ele>
        <time>1970-01-01T00:00:00.000Z</time>
      </trkpt>
      <trkpt lat="48.6542" lon="1.88094">
        <ele>168</ele>
        <time>1970-01-01T00:00:00.000Z</time>
      </trkpt>
      <trkpt lat="48.65262" lon="1.87921">
        <ele>168</ele>
        <time>1970-01-01T00:00:00.000Z</time>
      </trkpt>
      <trkpt lat="48.65053" lon="1.87868">
        <ele>165</ele>
        <time>1970-01-01T00:00:00.000Z</time>
      </trkpt>
      <trkpt lat="48.64942" lon="1.87753">
        <ele>167</ele>
        <time>1970-01-01T00:00:00.000Z</time>
      </trkpt>
      <trkpt lat="48.64952" lon="1.87579">
        <ele>167</ele>
        <time>1970-01-01T00:00:00.000Z</time>
      </trkpt>
      <trkpt lat="48.64678" lon="1.87241">
        <ele>171</ele>
        <time>1970-01-01T00:00:00.000Z</time>
      </trkpt>
      <trkpt lat="48.64439" lon="1.87766">
        <ele>170</ele>
        <time>1970-01-01T00:00:00.000Z</time>
      </trkpt>
      <trkpt lat="48.64283" lon="1.88131">
        <ele>170</ele>
        <time>1970-01-01T00:00:00.000Z</time>
      </trkpt>
      <trkpt lat="48.64143" lon="1.88607">
        <ele>171</ele>
        <time>1970-01-01T00:00:00.000Z</time>
      </trkpt>
      <trkpt lat="48.63821" lon="1.89456">
        <ele>171</ele>
        <time>1970-01-01T00:00:00.000Z</time>
      </trkpt>
      <trkpt lat="48.63639" lon="1.89861">
        <ele>172</ele>
        <time>1970-01-01T00:00:00.000Z</time>
      </trkpt>
      <trkpt lat="48.63945" lon="1.90214">
        <ele>172</ele>
        <time>1970-01-01T00:00:00.000Z</time>
      </trkpt>
      <trkpt lat="48.63987" lon="1.90155">
        <ele>172</ele>
        <time>1970-01-01T00:00:00.000Z</time>
      </trkpt>
      <trkpt lat="48.64355" lon="1.90548">
        <ele>172</ele>
        <time>1970-01-01T00:00:00.000Z</time>
      </trkpt>
      <trkpt lat="48.6435" lon="1.90579">
        <ele>172</ele>
        <time>1970-01-01T00:00:00.000Z</time>
      </trkpt>
      <trkpt lat="48.64734" lon="1.91019">
        <ele>171</ele>
        <time>1970-01-01T00:00:00.000Z</time>
      </trkpt>
      <trkpt lat="48.64547" lon="1.91416">
        <ele>169</ele>
        <time>1970-01-01T00:00:00.000Z</time>
      </trkpt>
      <trkpt lat="48.6449" lon="1.91575">
        <ele>172</ele>
        <time>1970-01-01T00:00:00.000Z</time>
      </trkpt>
      <trkpt lat="48.6448" lon="1.91725">
        <ele>170</ele>
        <time>1970-01-01T00:00:00.000Z</time>
      </trkpt>
      <trkpt lat="48.64713" lon="1.92372">
        <ele>169</ele>
        <time>1970-01-01T00:00:00.000Z</time>
      </trkpt>
      <trkpt lat="48.65083" lon="1.93485">
        <ele>171</ele>
        <time>1970-01-01T00:00:00.000Z</time>
      </trkpt>
      <trkpt lat="48.65281" lon="1.9304">
        <ele>170</ele>
        <time>1970-01-01T00:00:00.000Z</time>
      </trkpt>
      <trkpt lat="48.65523" lon="1.9326">
        <ele>153</ele>
        <time>1970-01-01T00:00:00.000Z</time>
      </trkpt>
      <trkpt lat="48.65622" lon="1.93235">
        <ele>159</ele>
        <time>1970-01-01T00:00:00.000Z</time>
      </trkpt>
      <trkpt lat="48.65654" lon="1.93124">
        <ele>163</ele>
        <time>1970-01-01T00:00:00.000Z</time>
      </trkpt>
      <trkpt lat="48.65625" lon="1.92531">
        <ele>168</ele>
        <time>1970-01-01T00:00:00.000Z</time>
      </trkpt>
      <trkpt lat="48.65525" lon="1.92453">
        <ele>167</ele>
        <time>1970-01-01T00:00:00.000Z</time>
      </trkpt>
      <trkpt lat="48.65864" lon="1.91706">
        <ele>171</ele>
        <time>1970-01-01T00:00:00.000Z</time>
      </trkpt>
      <trkpt lat="48.65869" lon="1.91849">
        <ele>170</ele>
        <time>1970-01-01T00:00:00.000Z</time>
      </trkpt>
      <trkpt lat="48.66097" lon="1.91847">
        <ele>171</ele>
        <time>1970-01-01T00:00:00.000Z</time>
      </trkpt>
      <trkpt lat="48.66453" lon="1.91741">
        <ele>173</ele>
        <time>1970-01-01T00:00:00.000Z</time>
      </trkpt>
      <trkpt lat="48.66589" lon="1.91692">
        <ele>173</ele>
        <time>1970-01-01T00:00:00.000Z</time>
      </trkpt>
      <trkpt lat="48.66751" lon="1.91549">
        <ele>174</ele>
        <time>1970-01-01T00:00:00.000Z</time>
      </trkpt>
      <trkpt lat="48.67138" lon="1.91348">
        <ele>175</ele>
        <time>1970-01-01T00:00:00.000Z</time>
      </trkpt>
      <trkpt lat="48.67295" lon="1.91236">
        <ele>175</ele>
        <time>1970-01-01T00:00:00.000Z</time>
      </trkpt>
      <trkpt lat="48.67442" lon="1.91329">
        <ele>176</ele>
        <time>1970-01-01T00:00:00.000Z</time>
      </trkpt>
      <trkpt lat="48.67448" lon="1.91503">
        <ele>175</ele>
        <time>1970-01-01T00:00:00.000Z</time>
      </trkpt>
    </trkseg>
  </trk>
</gpx>